SCOUT A DEB, 3213

Orbit data source: Space-Track

SCOUT A DEB, 3213 is space debris in LEO originally from a launch on Sat, 02 Mar 1968 UTC launched from the Air Force Western Test Range (AFWTR). Debris objects in space refer to the collection of defunct objects orbiting the Earth. Examples of debris include non-operational satellites, rocket bodies, and fragments generated from explosions, collisions, or faulty payload assembly.

Loading next visibility...
Identifier
3213, 1968-012C
Orbit
LEO
Country
Flag of USUS
Related business
Manufacturer
Unknown
Mission
Spacecraft
Bus & Motor
Unknown
Mass
Unknown
Launch date (UTC)
1968-03-02 (58 years ago)
Launch vehicle
Unknown
Launch site
Air Force Western Test Range (AFWTR)
Object type
Payload
Rocket body
Debris
Shape & HBR
Unknown shape, 0.1 m
Radar Cross Section
Small (<0.1 m²)

Expand to show TLE details & history
Last TLE update: 2 days ago

TLE from 2 days ago
0 SCOUT A DEB
1 03213U 68012C   25306.42648709  .00000505  00000-0  40498-3 0  9990
2 03213  90.2130 108.3395 0050238 329.0062  89.4441 13.89097156578969
Epoch: 2025-11-02T10:14Z
TLE epoch observation values (Epoch: 2025-11-02T10:14:08.484Z)
Latitude
59.11799°
Longitude
-87.49253°
Altitude
941.736 km
Speed
7.387 km/s
True Right ascension
07h 11m 56s
True Declination
58° 58' 12"
Sunlit
Object was in daylight at epoch
Visualization orbit readout
Latitude
Unknown
Longitude
Unknown
Altitude
Unknown
Speed
Unknown
Apparent Right ascension
Unknown
Apparent Declination
Unknown
Sunlit
N/A
Visualization observer readout
Local Sidereal Time
16:50:37
Azimuth
Unknown
Elevation
Unknown
Doppler factor
Unknown
Orbital elements
Apogee altitude
965.498 km
Perigee altitude
892.081 km
Semi-major axis
7,306.926 km
Eccentricity
0.00502
Inclination
90.213°
RAAN
108.3395°
Arg. of periapsis
329.0062°
True anomaly
90.01978°
Mean anomaly
89.4441°
Eccentric anomaly
89.73194°
Mean motion
3.47489 °/min
Orbital period
103.6 mins
BSTAR
0.00040498
Loading maneuver chart data...
Computing Atmospheric mass density...
Loading historical data...
Loading historical data...
Loading historical data...
Loading historical data...
Loading historical data...
Loading historical data...
Loading historical data...

Documentation

Showing up to 5 results
|